Date,TemperatureHighF,TemperatureAvgF,TemperatureLowF,DewpointHighF,DewpointAvgF,DewpointLowF,HumidityHigh,HumidityAvg,HumidityLow,PressureMaxIn,PressureMinIn,WindSpeedMaxMPH,WindSpeedAvgMPH,GustSpeedMaxMPH,PrecipitationSumIn
2012-1-1,50.4,41.1,35.1,0.0,0.0,0.0,69,65,57,30.24,30.05,2,0,2,0.00
2012-1-2,54.1,48.3,36.1,0.0,0.0,0.0,75,61,23,30.34,29.98,3,1,3,0.12
2012-1-3,54.9,48.5,43.2,0.0,0.0,0.0,77,62,42,30.40,30.25,1,0,1,0.00
2012-1-4,55.2,51.5,32.0,0.0,0.0,0.0,82,57,1,30.44,30.24,2,0,3,0.24
2012-1-5,50.9,46.5,36.5,0.0,0.0,0.0,80,79,77,30.55,30.38,1,0,1,0.09
2012-1-6,47.5,40.7,34.2,0.0,0.0,0.0,78,75,70,30.43,30.34,0,0,0,0.00
2012-1-7,50.7,41.4,34.3,0.0,0.0,0.0,75,68,54,30.52,30.39,1,0,1,0.00
2012-1-8,46.6,38.4,32.9,0.0,0.0,0.0,69,67,62,30.44,30.30,0,0,0,0.00
2012-1-9,50.0,43.2,34.7,0.0,0.0,0.0,71,64,54,30.38,30.28,0,0,0,0.03
2012-1-10,47.1,43.4,36.0,0.0,0.0,0.0,71,45,24,30.47,30.37,0,0,0,0.03
2012-1-11,47.8,37.9,29.8,0.0,0.0,0.0,57,44,22,30.38,30.20,0,0,0,0.00
2012-1-12,48.4,35.5,28.0,0.0,0.0,0.0,58,49,21,30.27,30.16,0,0,0,0.00
2012-1-13,46.6,36.2,30.4,0.0,0.0,0.0,58,53,38,30.29,30.19,1,0,1,0.00
2012-1-14,50.4,43.8,36.3,0.0,0.0,0.0,77,59,35,30.29,30.18,1,0,1,0.18
2012-1-15,43.2,37.5,34.0,0.0,0.0,0.0,78,73,50,30.26,30.16,3,0,3,0.15
2012-1-16,40.5,35.5,30.4,0.0,0.0,0.0,78,76,68,30.38,30.24,2,0,2,0.24
2012-1-17,45.3,43.1,38.1,0.0,0.0,0.0,80,79,78,30.27,30.06,3,2,3,0.63
2012-1-18,75.9,69.0,43.9,68.5,25.3,0.0,80,78,77,30.06,29.80,5,3,5,1.41
2012-1-19,81.7,38.6,-4.0,73.7,32.2,-81.1,82,75,1,29.87,29.60,5,1,5,0.75
2012-1-20,0.0,0.0,0.0,0.0,0.0,0.0,83,80,1,29.87,29.32,4,1,4,0.96
2012-1-21,0.0,0.0,0.0,0.0,0.0,0.0,84,83,82,30.07,29.42,2,0,2,0.18
2012-1-22,0.0,0.0,0.0,0.0,0.0,0.0,85,82,1,29.99,29.61,4,1,4,0.03
2012-1-23,0.0,0.0,0.0,0.0,0.0,0.0,85,82,1,30.16,29.85,1,0,1,0.00
2012-1-24,0.0,0.0,0.0,0.0,0.0,0.0,85,80,1,30.30,30.00,4,2,4,0.24
2012-1-25,0.0,0.0,0.0,0.0,0.0,0.0,85,83,81,30.49,30.26,2,0,2,0.18
2012-1-26,43.5,9.3,0.0,35.8,7.8,0.0,85,76,60,30.61,30.24,2,0,2,0.27
2012-1-27,50.0,39.7,33.6,41.6,33.3,29.3,86,78,45,30.59,30.49,1,0,1,0.00
2012-1-28,53.1,45.3,35.1,42.2,38.3,30.3,83,77,53,30.49,30.29,2,0,2,0.00
2012-1-29,52.7,48.3,42.4,46.3,41.8,27.1,84,78,55,30.30,30.12,10,1,10,0.72
2012-1-30,52.7,50.1,47.8,47.6,45.2,43.2,85,83,80,30.23,30.15,0,0,0,0.03
2012-1-31,51.6,48.3,45.7,47.2,43.8,41.4,86,84,82,30.19,29.94,1,0,1,0.78
2012-2-1,51.4,48.2,42.4,46.7,43.6,37.9,86,84,80,30.48,29.95,2,0,2,0.00
2012-2-2,58.8,43.6,38.7,46.7,38.0,34.8,86,81,49,30.45,30.03,2,0,2,0.00
2012-2-3,58.3,47.0,38.5,36.8,33.7,21.6,70,60,24,30.15,29.99,2,0,2,0.03
2012-2-4,57.9,46.6,41.0,36.8,30.2,10.2,69,55,16,30.16,30.06,1,0,1,0.00
2012-2-5,56.5,45.8,39.7,32.4,27.8,15.1,63,51,20,30.22,30.00,1,0,1,0.00
2012-2-6,65.7,47.3,41.4,32.1,27.5,-9.5,64,50,5,30.00,29.70,2,0,2,0.00
2012-2-7,55.9,49.3,41.9,45.2,36.7,27.7,79,62,42,30.04,29.69,1,0,1,0.03
2012-2-8,54.1,51.4,48.2,48.4,45.9,42.0,83,82,79,30.29,30.04,1,0,2,0.30
2012-2-9,56.5,53.4,50.9,49.5,42.7,23.8,84,69,30,30.28,30.02,2,0,2,0.03
2012-2-10,54.5,51.3,48.0,49.1,44.5,31.5,84,78,44,30.19,30.01,2,0,2,0.93
2012-2-11,52.2,47.0,42.1,43.6,39.9,32.9,85,77,50,30.31,30.19,2,0,2,0.00
2012-2-12,50.5,46.2,43.0,39.4,36.8,33.1,82,70,54,30.08,29.92,0,0,0,0.45
2012-2-13,49.8,46.9,44.4,43.5,39.8,34.9,84,77,59,30.20,29.94,2,0,2,0.18
2012-2-14,48.7,44.5,40.1,41.1,36.2,30.2,81,73,59,30.30,30.13,1,0,1,0.18
2012-2-15,52.9,40.9,32.0,32.0,24.0,-58.3,82,56,1,30.46,30.30,5,0,5,0.03
2012-2-16,50.2,46.4,39.9,40.8,34.8,26.6,73,64,58,30.38,30.30,1,0,1,0.00
2012-2-17,53.2,49.2,45.0,46.9,43.2,39.8,83,80,73,30.32,30.19,2,0,2,0.00
2012-2-18,50.4,44.6,40.3,40.9,32.3,10.0,84,66,21,30.37,30.29,2,0,2,0.00
2012-2-19,52.7,44.3,38.1,40.4,27.7,-10.6,78,58,7,30.30,29.94,2,0,2,0.00
2012-2-20,53.1,50.6,46.8,47.4,43.1,-46.2,83,79,1,30.31,29.94,3,1,3,0.00
2012-2-21,54.0,52.3,51.4,-44.8,-45.8,-46.3,1,1,1,30.49,30.30,1,0,1,0.00
2012-2-22,52.5,50.1,45.9,43.8,-19.7,-48.0,84,26,1,30.55,30.43,1,0,1,0.00
2012-2-23,45.9,42.0,39.7,41.3,37.5,35.2,85,84,82,30.53,30.51,0,0,1,0.00
2012-2-26,45.3,43.0,40.1,27.3,15.4,8.5,60,34,22,30.20,30.17,2,1,2,0.00
2012-2-27,50.9,41.9,35.4,30.6,20.2,9.0,71,45,21,30.18,30.03,2,0,2,0.00
2012-2-28,46.9,42.0,36.1,36.8,26.7,16.1,76,55,42,30.03,29.65,3,1,3,0.00
2012-2-29,46.0,42.9,37.6,38.0,33.2,27.2,76,69,51,30.04,29.79,3,1,3,0.00
2012-3-1,51.4,42.9,32.0,44.1,35.1,-58.3,79,74,1,30.50,29.97,2,0,2,0.00
2012-3-2,54.5,44.6,37.0,44.3,36.6,31.0,79,74,64,30.57,30.50,1,0,1,0.00
2012-3-3,61.7,49.3,41.0,41.8,34.6,25.5,73,59,27,30.55,30.41,2,0,2,0.00
2012-3-4,57.2,48.1,39.7,36.1,27.8,23.2,59,46,30,30.42,30.23,3,0,3,0.00
2012-3-5,50.7,47.9,41.4,42.4,33.7,24.7,79,61,36,30.23,30.01,3,1,3,0.45
2012-3-6,46.4,41.6,36.1,39.4,34.4,28.6,80,76,69,30.41,30.16,2,0,2,0.21
2012-3-7,58.1,42.1,32.7,34.2,20.6,-15.5,76,51,5,30.46,30.21,2,0,2,0.21
2012-3-8,66.0,48.0,37.0,33.0,22.3,-8.4,55,39,5,30.38,30.19,2,0,2,0.00
2012-3-9,69.1,51.7,47.8,28.4,20.1,-13.0,44,32,5,30.38,30.13,2,0,2,0.00
2012-3-10,49.5,48.0,46.4,36.6,24.8,20.6,62,40,32,30.13,30.01,1,0,1,0.03
2012-3-13,43.9,43.1,43.0,37.5,36.7,36.6,78,78,78,32.49,32.49,0,0,0,0.00
2012-3-14,52.0,46.9,32.0,45.7,39.5,-58.3,82,78,1,32.49,29.86,2,1,3,0.00
2012-3-15,53.4,51.6,50.2,48.1,46.1,44.6,82,81,80,29.91,29.77,3,2,3,0.00
2012-3-16,54.1,48.5,43.3,47.4,42.6,-58.3,81,80,77,29.85,29.39,15,0,15,0.00
2012-3-17,54.3,44.4,41.2,42.4,38.2,36.1,82,79,64,29.76,29.54,2,0,3,0.00
2012-3-18,59.4,47.7,40.5,37.5,31.9,9.3,78,58,21,29.97,29.72,2,0,3,0.00
2012-3-19,57.6,42.7,36.1,38.7,33.1,18.4,77,69,43,29.98,29.85,3,0,3,0.00
2012-3-20,50.4,47.7,42.8,44.1,41.8,38.0,86,80,77,30.13,29.85,3,1,3,0.00
2012-3-21,65.3,42.3,39.2,59.6,38.6,35.7,88,86,82,30.11,29.92,1,0,1,0.00
2012-3-26,50.9,47.9,38.7,31.5,29.1,24.5,58,48,36,30.51,30.32,2,1,2,0.00
2012-3-27,51.3,47.3,44.8,43.4,37.9,31.5,80,70,57,30.33,30.19,2,1,2,0.00
2012-3-28,48.7,45.1,39.4,41.3,39.0,33.1,81,79,71,30.54,30.31,3,1,3,0.00
2012-3-29,57.9,50.0,48.7,51.1,44.3,42.8,81,81,78,30.41,30.38,3,2,3,0.00
2012-9-30,72.3,53.7,49.1,34.7,25.7,-8.8,56,36,5,30.99,30.87,2,1,2,0.00
2012-10-1,49.1,47.6,45.1,31.9,30.0,27.6,53,50,48,30.87,30.81,0,0,0,0.00
2012-10-30,59.0,57.7,57.0,51.4,50.2,49.3,76,76,76,29.88,29.83,2,1,2,0.15
2012-10-31,57.2,54.9,32.0,49.5,42.2,-58.3,76,70,1,29.84,29.71,2,0,2,0.66
2012-11-1,55.9,45.5,32.0,45.0,1.3,-58.3,69,39,1,30.11,29.84,3,1,3,0.33
2012-11-2,60.1,45.1,32.0,46.1,0.4,-58.3,60,36,1,30.10,30.02,1,0,1,0.12
2012-11-3,57.2,57.0,56.7,42.5,42.2,42.0,58,58,58,30.20,30.19,1,1,1,0.03
2012-11-19,67.3,43.8,32.0,0.0,0.0,0.0,80,38,1,29.84,29.66,4,1,11,0.87
2012-11-20,55.6,50.3,32.0,0.0,0.0,0.0,84,67,1,29.85,29.70,1,0,1,0.87
2012-11-21,57.6,44.8,32.0,0.0,0.0,0.0,84,48,1,30.37,29.79,1,0,2,0.18
2012-11-22,56.3,49.2,43.3,0.0,0.0,0.0,85,84,84,30.41,30.32,0,0,0,0.00
2012-11-23,58.3,34.9,32.0,0.0,0.0,0.0,85,14,1,30.34,30.24,2,0,2,0.30
2012-11-24,57.7,39.2,32.0,0.0,0.0,0.0,66,21,1,30.35,30.28,1,0,2,0.99
2012-11-25,52.7,41.3,32.0,0.0,0.0,0.0,60,31,1,30.29,30.06,1,0,2,0.03
2012-11-26,47.5,36.4,32.0,0.0,0.0,0.0,58,18,1,30.13,30.02,0,0,1,0.00
2012-11-27,32.0,32.0,32.0,0.0,0.0,0.0,1,1,1,30.12,29.89,0,0,1,0.00
2012-11-28,62.6,48.6,32.0,0.0,0.0,0.0,62,33,1,29.86,29.61,2,0,2,0.06
2012-11-29,64.2,61.0,59.2,0.0,0.0,0.0,58,55,52,29.70,29.53,2,1,2,1.38
2012-11-30,62.2,60.7,59.4,0.0,0.0,0.0,61,59,58,29.63,29.49,3,2,3,0.27
2012-12-1,61.7,59.9,58.6,0.0,0.0,0.0,61,59,57,29.85,29.56,2,1,3,0.39
2012-12-2,63.5,61.7,59.2,0.0,0.0,0.0,57,54,52,30.08,29.65,1,0,2,0.18
2012-12-3,62.1,60.3,58.8,0.0,0.0,0.0,58,57,55,30.17,29.86,0,0,0,0.06
2012-12-4,66.6,61.6,59.2,0.0,0.0,0.0,66,62,55,30.13,29.81,3,2,3,0.36
2012-12-5,66.4,59.0,42.6,0.0,0.0,0.0,75,57,50,30.35,30.15,1,0,1,0.03
2012-12-6,50.2,45.6,41.2,0.0,0.0,0.0,95,89,75,30.39,30.32,0,0,0,0.06
2012-12-7,51.3,47.9,44.6,0.0,0.0,0.0,97,96,93,30.36,30.31,0,0,0,0.27
2012-12-8,48.9,45.3,42.3,0.0,0.0,0.0,97,96,95,30.46,30.32,0,0,0,0.00
2012-12-9,53.1,47.7,43.0,0.0,0.0,0.0,96,95,94,30.50,30.44,0,0,0,0.00
2012-12-10,53.2,50.3,47.7,0.0,0.0,0.0,94,89,81,30.54,30.24,0,0,0,0.00
2012-12-11,50.4,47.9,43.9,0.0,0.0,0.0,97,88,73,30.22,29.79,1,0,1,0.51
2012-12-12,48.9,44.3,41.4,0.0,0.0,0.0,98,97,96,30.01,29.86,0,0,0,0.18
2012-12-14,38.3,38.1,37.9,0.0,0.0,0.0,97,97,97,30.05,30.03,0,0,0,0.00
2012-12-15,48.2,43.9,32.0,0.0,0.0,0.0,98,97,1,30.03,29.78,3,0,3,0.27
2012-12-16,54.5,48.7,32.0,0.0,0.0,0.0,98,96,1,29.99,29.47,3,1,3,0.69
2012-12-17,50.5,46.4,39.7,0.0,0.0,0.0,97,91,72,30.16,29.62,3,1,3,0.15
2012-12-18,44.2,40.5,32.0,0.0,0.0,0.0,97,96,82,30.23,30.15,3,0,3,0.27
2012-12-19,50.0,45.4,39.9,0.0,0.0,0.0,97,97,96,30.16,29.68,3,1,3,0.27
2012-12-20,49.5,43.8,32.0,0.0,0.0,0.0,98,97,1,29.89,29.62,3,1,3,2.19
2012-12-21,46.2,43.9,41.2,43.4,5.0,0.0,98,97,97,29.82,29.55,1,0,2,0.36
2012-12-22,46.6,42.3,39.9,44.4,41.5,39.4,99,97,88,29.81,29.52,1,0,4,1.53
2012-12-23,45.5,41.5,39.0,43.5,28.4,0.0,100,99,97,30.02,29.62,1,0,2,1.21
2012-12-24,46.9,42.4,38.9,46.5,41.8,-99.9,100,99,99,30.24,29.96,1,-5,1,0.04
2012-12-25,50.1,45.6,41.1,49.4,45.4,40.9,100,99,95,29.96,29.65,2,0,14,0.47
2012-12-26,46.8,44.5,42.9,46.8,44.4,42.8,100,100,97,30.13,29.73,1,0,7,0.42
2012-12-27,47.5,44.1,40.4,47.0,43.9,40.4,100,99,96,30.22,30.12,0,0,2,0.02
2012-12-28,45.8,42.9,41.2,45.5,42.8,41.2,100,100,97,30.16,30.08,0,0,3,0.07
2012-12-29,42.7,37.2,32.7,42.2,37.2,32.7,100,100,97,30.22,30.14,0,0,2,0.00
2012-12-30,45.4,35.7,31.5,42.2,35.2,31.5,100,98,85,30.26,30.17,1,0,5,0.01
2012-12-31,47.0,40.4,32.6,45.2,40.0,32.6,100,99,89,30.35,30.21,1,0,4,0.09
2013-1-1,43.6,37.3,32.1,43.6,37.3,32.1,100,100,100,30.36,30.22,0,0,2,0.01